New Bern, NC

4:00 AM EST on December 06, 2019 (GMT -0500)
Craven County Regional

Weather History for KEWN - July, 2019

Change the Weather History Date:

Monday, July 22, 2019

  Actual Average Record
Temperature  
Mean Temperature 86 °F 81 °F  
Max Temperature 95 °F 90 °F 106 °F (1952)
Min Temperature 77 °F 72 °F 60 °F (1965)
Degree Days  
Heating Degree Days 0 0  
Month to date heating degree days 0 0  
Since 1 June heating degree days 0 1  
Since 1 July heating degree days 0 0  
Cooling Degree Days 21 16  
Month to date cooling degree days 412 345  
Year to date cooling degree days 1207 953  
Since 1 June cooling degree days 788 710  
Growing Degree Days 35 (Base 50)    
Moisture  
Dew Point 75 °F    
Average Humidity 74    
Maximum Humidity 91    
Minimum Humidity 56    
Precipitation  
Precipitation 0.00 in 0.20 in 1.94 in (1988)
Month to date precipitation 4.26 4.22  
Year to date precipitation 22.94 28.20  
Snow  
Snow 0.00 in - - ()
Month to date snowfall 0.0  
Since 1 July snowfall 0.0  
Snow Depth 0.00 in    
Sea Level Pressure  
Sea Level Pressure 29.97 in    
Wind  
Wind Speed 11 mph (SW)    
Max Wind Speed 20 mph    
Max Gust Speed 29 mph    
Visibility 10 miles    
Events      
T = Trace of Precipitation, MM = Missing Value Source: NWS Daily Summary

Daily Weather History Graph

Daily Weather History Graph

Search for Another Location

Airport or City:

Astronomy

Jul. 22, 2019 Rise Set
Actual Time 6:09 AM EDT 8:18 PM EDT
Civil Twilight 5:41 AM EDT 8:47 PM EDT
Nautical Twilight 5:06 AM EDT 9:22 PM EDT
Astronomical Twilight 4:28 AM EDT 9:59 PM EDT
Moon 11:50 PM EDT (7/22) 11:14 AM EDT (7/22)
Length of Visible Light 15h 06m
Length of Day
14h 08m
Waning Gibbous, 72% of the Moon is Illuminated
Jul 22
Waning Gibbous
Jul 24
Last Quarter
Jul 31
New
Aug 7
First Quarter
Aug 15
Full

Hourly Weather History & Observations

Time (EDT) Temp. Heat Index Dew Point Humidity Pressure Visibility Wind Dir Wind Speed Gust Speed Precip Events Conditions
12:54 AM 81.0 °F 87.3 °F 75.9 °F 85% 30.00 in 10.0 mi SW 5.8 mph - N/A   Clear
1:54 AM 80.1 °F 85.1 °F 75.0 °F 85% 29.99 in 10.0 mi SW 8.1 mph - N/A   Clear
2:54 AM 79.0 °F - 75.0 °F 88% 29.99 in 10.0 mi SW 6.9 mph - N/A   Clear
3:54 AM 78.1 °F - 75.0 °F 90% 29.99 in 10.0 mi SW 5.8 mph - N/A   Clear
4:54 AM 78.1 °F - 73.9 °F 87% 29.99 in 10.0 mi SW 6.9 mph - N/A   Clear
5:54 AM 77.0 °F - 73.9 °F 90% 30.00 in 10.0 mi SW 5.8 mph - N/A   Clear
6:54 AM 78.1 °F - 75.0 °F 90% 30.00 in 10.0 mi SW 6.9 mph - N/A   Clear
7:54 AM 81.0 °F 86.7 °F 75.0 °F 82% 30.01 in 10.0 mi SW 6.9 mph - N/A   Clear
8:54 AM 84.9 °F 93.3 °F 75.0 °F 72% 30.01 in 10.0 mi West 9.2 mph - N/A   Clear
9:54 AM 88.0 °F 98.5 °F 75.9 °F 67% 30.00 in 10.0 mi SW 8.1 mph - N/A   Clear
10:54 AM 90.0 °F 102.5 °F 77.0 °F 65% 30.00 in 10.0 mi West 9.2 mph - N/A   Clear
11:54 AM 91.0 °F 101.6 °F 75.0 °F 59% 30.00 in 10.0 mi WSW 11.5 mph 19.6 mph N/A   Scattered Clouds
12:54 PM 93.0 °F 104.6 °F 75.0 °F 56% 29.99 in 10.0 mi SSW 13.8 mph - N/A   Clear
1:54 PM 93.9 °F 108.4 °F 77.0 °F 58% 29.96 in 10.0 mi SSW 13.8 mph - N/A   Partly Cloudy
2:54 PM 91.9 °F 105.9 °F 77.0 °F 62% 29.95 in 10.0 mi South 13.8 mph - N/A   Mostly Cloudy
3:54 PM 93.0 °F 105.3 °F 75.9 °F 57% 29.93 in 10.0 mi South 16.1 mph 23.0 mph N/A   Scattered Clouds
4:54 PM 91.9 °F 103.2 °F 75.0 °F 58% 29.92 in 10.0 mi SSW 13.8 mph 25.3 mph N/A   Clear
5:54 PM 90.0 °F 97.9 °F 73.0 °F 57% 29.91 in 10.0 mi South 19.6 mph 26.5 mph N/A   Clear
6:54 PM 88.0 °F 94.7 °F 72.0 °F 59% 29.92 in 10.0 mi South 12.7 mph 25.3 mph N/A   Clear
7:54 PM 84.0 °F 89.6 °F 72.0 °F 67% 29.94 in 10.0 mi SSW 11.5 mph - N/A   Clear
8:54 PM 82.0 °F 87.9 °F 73.9 °F 76% 29.94 in 10.0 mi SSW 13.8 mph 24.2 mph N/A   Clear
9:54 PM 82.0 °F 88.6 °F 75.0 °F 79% 29.96 in 10.0 mi SSW 15.0 mph - N/A   Clear
10:54 PM 81.0 °F 86.7 °F 75.0 °F 82% 29.96 in 10.0 mi SW 13.8 mph 23.0 mph N/A   Clear
11:54 PM 81.0 °F 86.7 °F 75.0 °F 82% 29.96 in 10.0 mi SW 9.2 mph - N/A   Clear